Find Starlink 34744

NORAD ID: 64952 Int'l Des: 2025-158 Owner: SPXS Country: US Constellation: starlink operational
LEOCIRCULARRETROGRADESSO

現在のビュー

3D地球を読み込み中...

About Starlink 34744

Starlink 34744 (NORAD 64952) is a starlink constellation satellite (v2 mini) launched Jul 27, 2025 by SPXS of US. It operates in LEO, CIRCULAR, RETROGRADE, SSO orbit with a mass of 575.00 kg.

次回通過

Passes for default location (London). Set your location on the main map for personalized predictions.

高度履歴

Loading altitude history...

軌道要素

1 64952U 25158W 26262.88440149 .00017758 00000-0 55087-3 0 9999
2 64952 97.2851 121.2153 0002561 89.3101 270.8435 15.33455326 64614
Epoch: Sep 19, 2026 • Age: 21 hours

現在のステータス

高度 475.9 km
遠地点 / 近地点 N/A
速度 7.64 km/s
衛星直下点 70.55°N, 167.12°W
打ち上げ日 Jul 27, 2025
運用期間 1.1 years
タイプ internet

技術仕様

分類 Payload
質量 575.00 kg
乾燥質量 530.00 kg
長さ 0.30 m
スパン 29.00 m
形状 ? Box + pan
製造者 SPXS
バスタイプ Starlink V2MO
フェーズステータス In Orbit
所有者/国 SPXS/US

Most Searched